Stations météo

réclame
Mon MeteoGroup
Eindhoven, Pays-Bas (6370): Température de l'air & dewpoint: 10.07.2020 02:00:00 - 16.07.2020 02:00:00 (CEST)Eindhoven, Pays-Bas (6370): Température de l'air 5cm: 10.07.2020 02:00:00 - 16.07.2020 02:00:00 (CEST)Eindhoven, Pays-Bas (6370): Vitesse du vent & gusts: 10.07.2020 02:00:00 - 16.07.2020 02:00:00 (CEST)Eindhoven, Pays-Bas (6370): Direction du vent: 10.07.2020 02:00:00 - 16.07.2020 02:00:00 (CEST)Eindhoven, Pays-Bas (6370): reduced air pressure: 10.07.2020 02:00:00 - 16.07.2020 02:00:00 (CEST)Eindhoven, Pays-Bas (6370): visibility: 10.07.2020 02:00:00 - 16.07.2020 02:00:00 (CEST)Eindhoven, Pays-Bas (6370): Quantités de précipitations: 10.07.2020 02:00:00 - 16.07.2020 02:00:00 (CEST)
Date & Time tt [°C] td [°C] tt 5cm [°C] ff [km/h] ff [knt] fx [km/h] fx [knt] dd ppp [hPa] vv [km] rr [mm]
16.07.2020 02:00:00 14,9 12,4 14,4 8 4 14 8 WSW 1016,6 10 0,0
16.07.2020 01:00:00 15,3 12,4 14,7 8 4 14 8 WSW 1016,5 10 0,0
16.07.2020 00:00:00 15,7 12,9 15,0 11 6 14 8 WSW 1016,5 10 0,0
15.07.2020 23:00:00 16,1 12,6 15,4 9 5 14 8 WSW 1016,4 10 0,0
15.07.2020 22:00:00 16,4 12,3 15,7 9 5 14 8 WSW 1016,1 10 0,0
15.07.2020 21:00:00 16,9 11,6 16,2 9 5 18 10 W 1015,7 10 0,0
15.07.2020 20:00:00 17,0 12,3 16,6 15 8 32 18 W 1015,6 10 0,0
15.07.2020 19:00:00 19,0 11,9 18,6 8 4 14 8 WNW 1015,1 10 0,0
15.07.2020 18:00:00 20,0 11,4 21,3 11 6 18 10 NNW 1015,0 10 0,0
15.07.2020 17:00:00 20,0 11,6 20,6 8 4 25 14 NW 1015,1 10 0,0
15.07.2020 16:00:00 20,8 10,0 24,0 13 7 18 10 WSW 1015,2 10 0,0
15.07.2020 15:00:00 19,8 10,5 22,0 8 4 22 12 NW 1015,4 10 0,0
15.07.2020 14:00:00 19,7 10,1 22,3 11 6 18 10 WNW 1015,3 10 0,0
15.07.2020 13:00:00 18,4 10,5 19,6 8 4 22 12 - 1015,3 10 0,0
15.07.2020 12:00:00 17,9 9,4 19,8 11 6 18 10 - 1015,2 10 0,0
15.07.2020 11:00:00 17,4 9,5 19,5 5 3 18 10 WNW 1015,2 10 0,0
15.07.2020 10:00:00 16,6 10,0 18,6 9 5 18 10 NW 1014,9 10 0,0
15.07.2020 09:00:00 15,3 10,7 15,7 9 5 18 10 WNW 1014,9 10 0,0
15.07.2020 08:00:00 13,7 11,1 13,1 5 3 14 8 WNW 1014,7 10 0,0
15.07.2020 07:00:00 10,9 10,5 9,3 5 3 7 4 W 1014,5 10 0,0
15.07.2020 06:00:00 9,9 9,6 7,2 4 2 7 4 - 1014,3 2,7 0,0
15.07.2020 05:00:00 11,4 11,0 10,3 4 2 7 4 W 1014,3 10 0,0
15.07.2020 04:00:00 12,1 11,5 10,9 5 3 11 6 WNW 1014,3 10 0,0
15.07.2020 03:00:00 12,2 11,4 10,9 4 2 11 6 - 1014,3 10 0,0
15.07.2020 02:00:00 13,7 12,2 12,8 4 2 7 4 - 1014,6 10 0,0
15.07.2020 01:00:00 14,1 12,1 13,4 4 2 14 8 - 1014,5 10 0,0
15.07.2020 00:00:00 14,9 11,9 14,3 11 6 14 8 NNW 1014,4 10 0,0
14.07.2020 23:00:00 15,2 14,1 14,8 5 3 11 6 NW 1014,6 10 0,0
14.07.2020 22:00:00 15,2 14,1 14,9 5 3 14 8 - 1014,4 10 0,0
14.07.2020 21:00:00 15,5 14,2 15,3 11 6 18 10 NW 1014,1 10 0,0
14.07.2020 20:00:00 15,7 14,6 15,8 11 6 18 10 NW 1013,8 9 0,2
14.07.2020 19:00:00 16,0 15,0 16,1 13 7 22 12 - 1013,9 10 0,1
14.07.2020 18:00:00 17,7 15,7 18,1 8 4 18 10 SW 1013,9 10 0,0
14.07.2020 17:00:00 17,6 16,3 18,2 13 7 18 10 SW 1014,2 10 0,1
14.07.2020 16:00:00 15,5 14,7 15,9 16 9 25 14 SSW 1014,8 10 0,4
14.07.2020 15:00:00 16,5 14,7 17,3 5 3 18 10 WSW 1015,0 10 0,2
14.07.2020 14:00:00 16,8 14,3 17,5 8 4 14 8 WNW 1015,2 10 0,3
14.07.2020 13:00:00 17,7 12,6 18,2 13 7 18 10 SW 1015,5 10 0,0
14.07.2020 12:00:00 17,6 11,9 17,7 4 2 22 12 - 1015,6 10 0,3
14.07.2020 11:00:00 18,1 10,7 18,7 15 8 22 12 WSW 1015,9 10 0,0
14.07.2020 10:00:00 18,2 11,6 18,6 15 8 22 12 SW 1015,8 10 0,0
14.07.2020 09:00:00 17,2 11,9 17,3 9 5 14 8 SSW 1015,8 10 0,0
14.07.2020 08:00:00 16,2 12,2 15,9 5 3 14 8 S 1016,0 10 0,0
14.07.2020 07:00:00 14,6 11,5 13,5 4 2 11 6 SSW 1016,4 10 0,0
14.07.2020 06:00:00 13,5 10,6 12,0 5 3 11 6 SSW 1016,5 10 0,0
14.07.2020 05:00:00 12,3 10,4 10,5 2 1 7 4 - 1017,0 10 0,0
14.07.2020 04:00:00 11,9 10,3 10,1 4 2 7 4 SW 1017,5 10 0,0
14.07.2020 03:00:00 11,1 9,6 8,8 2 1 7 4 - 1018,1 10 0,0
14.07.2020 02:00:00 11,8 10,0 8,6 2 1 7 4 S 1018,5 10 0,0
14.07.2020 01:00:00 12,2 10,3 9,3 5 3 7 4 SW 1018,8 10 0,0
14.07.2020 00:00:00 13,7 10,6 10,1 2 1 4 2 S 1019,1 10 0,0
13.07.2020 23:00:00 14,4 10,9 11,5 0 0 7 4 N 1019,6 10 0,0
13.07.2020 22:00:00 18,7 9,7 14,6 5 3 14 8 NW 1019,7 10 0,0
13.07.2020 21:00:00 20,6 11,0 19,6 11 6 14 8 NNW 1019,7 10 0,0
13.07.2020 20:00:00 22,6 10,5 22,7 9 5 14 8 WNW 1019,8 10 0,0
13.07.2020 19:00:00 23,4 9,4 24,2 13 7 18 10 W 1020,1 10 0,0
13.07.2020 18:00:00 23,9 8,1 25,5 11 6 22 12 - 1020,7 10 0,0
13.07.2020 17:00:00 24,2 7,0 25,9 13 7 22 12 - 1021,2 10 0,0
13.07.2020 16:00:00 23,8 8,0 26,5 8 4 22 12 - 1021,7 10 0,0
13.07.2020 15:00:00 23,4 8,2 26,4 11 6 22 12 - 1022,3 10 0,0
13.07.2020 14:00:00 22,7 8,5 25,8 5 3 14 8 - 1022,9 10 0,0
13.07.2020 13:00:00 21,9 8,2 24,8 8 4 14 8 WNW 1023,6 10 0,0
13.07.2020 12:00:00 21,2 9,2 23,7 9 5 18 10 N 1024,2 10 0,0
13.07.2020 11:00:00 20,9 10,2 23,4 8 4 14 8 - 1024,5 10 0,0
13.07.2020 10:00:00 19,8 10,2 21,7 5 3 14 8 N 1024,7 10 0,0
13.07.2020 09:00:00 18,3 9,8 19,7 5 3 14 8 E 1025,1 10 0,0
13.07.2020 08:00:00 15,3 10,8 14,2 2 1 7 4 - 1025,2 10 0,0
13.07.2020 07:00:00 9,6 9,0 7,1 2 1 7 4 NNW 1025,1 10 0,0
13.07.2020 06:00:00 8,6 8,2 5,9 0 0 7 4 N 1025,2 10 0,0
13.07.2020 05:00:00 9,1 8,3 6,2 4 2 11 6 - 1025,4 10 0,0
13.07.2020 04:00:00 10,8 8,9 6,7 4 2 7 4 - 1026,1 10 0,0
13.07.2020 03:00:00 10,9 8,8 7,5 2 1 7 4 - 1026,4 10 0,0
13.07.2020 02:00:00 12,9 8,8 9,0 5 3 14 8 N 1026,4 10 0,0
13.07.2020 01:00:00 12,0 8,6 10,4 13 7 14 8 NNE 1026,7 10 0,0
13.07.2020 00:00:00 13,5 8,7 12,1 15 8 18 10 NNE 1026,8 10 0,0
12.07.2020 23:00:00 14,6 10,1 11,4 11 6 22 12 N 1027,0 10 0,0
12.07.2020 22:00:00 16,0 10,4 13,4 8 4 14 8 N 1026,7 10 0,0
12.07.2020 21:00:00 18,1 10,0 17,3 11 6 14 8 N 1026,5 10 0,0
12.07.2020 20:00:00 20,2 9,0 20,4 13 7 22 12 N 1026,7 10 0,0
12.07.2020 19:00:00 20,6 8,8 21,7 15 8 22 12 N 1027,1 10 0,0
12.07.2020 18:00:00 21,5 9,6 23,1 9 5 25 14 NE 1027,4 10 0,0
12.07.2020 17:00:00 21,2 8,9 22,4 8 4 25 14 N 1027,6 10 0,0
12.07.2020 16:00:00 20,2 9,0 21,1 8 4 29 16 N 1028,0 10 0,0
12.07.2020 15:00:00 20,1 9,5 22,9 9 5 25 14 NE 1028,3 10 0,0
12.07.2020 14:00:00 20,0 10,3 19,7 11 6 18 10 NNE 1028,7 10 0,0
12.07.2020 13:00:00 18,9 9,0 19,4 11 6 14 8 NNE 1029,2 10 0,0
12.07.2020 12:00:00 17,5 8,6 19,2 5 3 14 8 - 1029,0 10 0,0
12.07.2020 11:00:00 17,5 10,9 21,3 11 6 14 8 NE 1029,0 10 0,0
12.07.2020 10:00:00 16,5 10,7 18,8 8 4 14 8 ENE 1029,2 10 0,0
12.07.2020 09:00:00 15,2 11,6 16,6 5 3 14 8 - 1029,0 10 0,0
12.07.2020 08:00:00 13,2 11,2 13,7 4 2 7 4 - 1028,6 10 0,0
12.07.2020 07:00:00 9,6 9,6 8,9 2 1 4 2 NNW 1028,1 10 0,0
12.07.2020 06:00:00 7,4 7,4 5,2 0 0 4 2 N 1027,7 10 0,0
12.07.2020 05:00:00 8,1 8,1 5,3 2 1 4 2 - 1027,6 8 0,0
12.07.2020 04:00:00 8,8 8,5 5,8 2 1 4 2 - 1027,5 9 0,0
12.07.2020 03:00:00 9,8 9,8 6,6 2 1 4 2 - 1027,6 10 0,0
12.07.2020 02:00:00 10,3 9,8 7,4 2 1 4 2 - 1027,6 10 0,0
12.07.2020 01:00:00 10,6 10,3 8,2 4 2 7 4 - 1027,6 10 0,0
12.07.2020 00:00:00 11,3 10,2 8,7 4 2 7 4 - 1027,4 10 0,0
11.07.2020 23:00:00 13,1 10,8 11,0 5 3 14 8 NNW 1027,1 10 0,0
11.07.2020 22:00:00 14,2 11,1 12,4 8 4 14 8 NW 1026,7 10 0,0
11.07.2020 21:00:00 16,5 11,7 16,3 9 5 22 12 NW 1026,2 10 0,0
11.07.2020 20:00:00 16,5 11,5 16,4 11 6 18 10 NW 1026,1 10 0,0
11.07.2020 19:00:00 18,4 12,5 20,3 5 3 11 6 - 1025,8 10 0,0
11.07.2020 18:00:00 17,9 13,4 19,6 4 2 14 8 - 1025,7 10 0,0
11.07.2020 17:00:00 14,0 13,0 13,8 9 5 22 12 E 1025,8 10 2,4
11.07.2020 16:00:00 15,0 12,8 14,7 9 5 32 18 N 1025,5 10 5,7
11.07.2020 15:00:00 18,3 11,0 20,9 8 4 25 14 SW 1025,1 10 0,0
11.07.2020 14:00:00 18,0 9,4 20,0 11 6 29 16 WSW 1025,2 10 0,0
11.07.2020 13:00:00 17,4 10,7 18,5 13 7 25 14 WSW 1024,9 10 0,0
11.07.2020 12:00:00 17,4 9,5 19,0 4 2 14 8 - 1024,7 10 0,0
11.07.2020 11:00:00 16,8 9,4 18,8 8 4 14 8 - 1024,5 10 0,0
11.07.2020 10:00:00 16,1 10,4 17,2 9 5 18 10 - 1024,3 10 0,0
11.07.2020 09:00:00 15,0 10,6 16,1 8 4 14 8 SW 1024,0 10 0,0
11.07.2020 08:00:00 13,0 11,0 12,7 4 2 4 2 - 1023,5 10 0,0
11.07.2020 07:00:00 9,0 8,8 8,4 2 1 4 2 - 1023,3 10 0,0
11.07.2020 06:00:00 7,1 7,1 4,9 4 2 4 2 SW 1022,8 10 0,0
11.07.2020 05:00:00 7,3 7,3 5,0 4 2 4 2 S 1022,4 10 0,0
11.07.2020 04:00:00 7,7 7,6 5,4 2 1 4 2 S 1022,2 10 0,0
11.07.2020 03:00:00 8,5 8,0 6,2 4 2 4 2 - 1022,0 10 0,0
11.07.2020 02:00:00 8,7 8,4 6,8 4 2 7 4 SW 1021,8 10 0,0
11.07.2020 01:00:00 10,2 8,6 8,3 5 3 14 8 WNW 1021,2 10 0,0
11.07.2020 00:00:00 11,3 8,8 9,4 8 4 14 8 NW 1020,7 10 0,0
10.07.2020 23:00:00 12,9 9,4 11,9 8 4 14 8 NW 1020,2 10 0,0
10.07.2020 22:00:00 14,4 9,8 12,9 5 3 18 10 NNW 1019,4 10 0,0
10.07.2020 21:00:00 15,8 9,3 15,5 11 6 25 14 N 1018,8 10 0,0
10.07.2020 20:00:00 17,3 9,2 17,4 13 7 25 14 NNW 1018,3 10 0,0
10.07.2020 19:00:00 17,6 10,6 18,2 15 8 29 16 NNW 1017,8 10 0,0
10.07.2020 18:00:00 18,0 11,4 18,3 11 6 25 14 WNW 1017,4 10 0,0
10.07.2020 17:00:00 17,1 13,6 17,7 9 5 25 14 NW 1017,1 10 0,1
10.07.2020 16:00:00 16,7 14,1 17,8 11 6 18 10 NW 1016,7 10 1,6
10.07.2020 15:00:00 15,4 13,7 16,3 8 4 25 14 W 1016,1 10 1,2
10.07.2020 14:00:00 14,6 12,2 15,1 21 11 32 18 NNW 1015,3 10 0,0
10.07.2020 13:00:00 16,3 13,2 17,1 22 12 40 21 NNW 1014,1 10 0,0
10.07.2020 12:00:00 17,0 14,0 17,5 13 7 - - WNW 1012,9 10 -
10.07.2020 11:00:00 15,9 13,3 16,8 16 9 32 18 NW 1011,7 10 0,0
10.07.2020 10:00:00 15,1 14,2 15,3 16 9 36 19 NW 1010,5 10 0,0
10.07.2020 09:00:00 16,3 15,9 16,4 18 10 32 18 WSW 1009,1 5 0,5
10.07.2020 08:00:00 16,0 15,4 15,9 21 11 32 18 SW 1008,3 3,5 0,0
10.07.2020 07:00:00 16,2 14,8 16,2 21 11 29 16 SW 1008,3 10 0,0
10.07.2020 06:00:00 16,7 14,3 16,5 21 11 32 18 WSW 1008,2 10 0,0
10.07.2020 05:00:00 17,2 14,2 16,9 18 10 32 18 SW 1008,4 10 0,0
10.07.2020 04:00:00 17,4 14,3 17,0 13 7 25 14 WSW 1008,9 10 0,0
10.07.2020 03:00:00 17,8 14,7 17,2 15 8 22 12 SW 1009,2 10 0,0
10.07.2020 02:00:00 17,9 15,0 17,3 13 7 18 10 SW 1009,9 10 0,0

tt = Température de l'air
td = dewpoint
tt 5cm = Température de l'air 5cm
ff = Vitesse du vent
fx = gusts
dd = Direction du vent
ppp = reduced air pressure
vv = visibility
rr = Quantités de précipitations

stations d'obs. à proximité